| time (UTC) | temp F | wind direction | speed MPH | gust MPH | rain 1hr in | rain 24hr in | rain mn in | humidity % | barometer mb |
| 20260906202506 | 94 | 162 | 7.0 | 15.0 | 0.00 | 0.00 | 0.00 | 44 | 1005.6 |
| 20260906202006 | 94 | 167 | 6.0 | 12.0 | 0.00 | 0.00 | 0.00 | 43 | 1005.6 |
| 20260906201506 | 94 | 158 | 5.0 | 30.0 | 0.00 | 0.00 | 0.00 | 45 | 1005.6 |
| 20260906201006 | 93 | 140 | 11.0 | 30.0 | 0.00 | 0.00 | 0.00 | 45 | 1005.6 |
| 20260906200506 | 93 | 162 | 5.0 | 15.0 | 0.00 | 0.00 | 0.00 | 46 | 1005.6 |
| 20260906200006 | 93 | 140 | 7.0 | 17.0 | 0.00 | 0.00 | 0.00 | 47 | 1005.6 |
| 20260906195506 | 93 | 146 | 8.0 | 22.0 | 0.00 | 0.00 | 0.00 | 47 | 1005.6 |
| 20260906195005 | 92 | 147 | 7.0 | 22.0 | 0.00 | 0.00 | 0.00 | 47 | 1005.6 |
| 20260906194506 | 92 | 151 | 9.0 | 22.0 | 0.00 | 0.00 | 0.00 | 48 | 1005.6 |
| 20260906194006 | 91 | 145 | 6.0 | 22.0 | 0.00 | 0.00 | 0.00 | 49 | 1005.6 |
| 20260906193506 | 91 | 140 | 10.0 | 24.0 | 0.00 | 0.00 | 0.00 | 51 | 1005.6 |
| 20260906193005 | 91 | 138 | 11.0 | 26.0 | 0.00 | 0.00 | 0.00 | 49 | 1005.6 |
| 20260906192506 | 91 | 143 | 9.0 | 26.0 | 0.00 | 0.00 | 0.00 | 50 | 1005.6 |
| 20260906192006 | 91 | 139 | 10.0 | 23.0 | 0.00 | 0.00 | 0.00 | 51 | 1005.6 |
| 20260906191506 | 90 | 147 | 6.0 | 25.0 | 0.00 | 0.00 | 0.00 | 53 | 1005.6 |
| 20260906191006 | 90 | 143 | 10.0 | 25.0 | 0.00 | 0.00 | 0.00 | 53 | 1005.6 |
| 20260906190506 | 89 | 128 | 11.0 | 25.0 | 0.00 | 0.00 | 0.00 | 52 | 1005.6 |
| 20260906190027 | 89 | 136 | 10.0 | 22.0 | 0.00 | 0.00 | 0.00 | 56 | 1005.6 |
| 20260906185506 | 88 | 127 | 11.0 | 23.0 | 0.00 | 0.00 | 0.00 | 57 | 1005.6 |
| 20260906185006 | 87 | 129 | 9.0 | 23.0 | 0.00 | 0.00 | 0.00 | 59 | 1005.6 |
| 20260906184506 | 87 | 129 | 9.0 | 19.0 | 0.00 | 0.00 | 0.00 | 60 | 1005.6 |
| 20260906184006 | 86 | 132 | 8.0 | 24.0 | 0.00 | 0.00 | 0.00 | 61 | 1005.6 |
| 20260906183506 | 86 | 124 | 8.0 | 24.0 | 0.00 | 0.00 | 0.00 | 63 | 1005.6 |
| 20260906183006 | 85 | 118 | 9.0 | 21.0 | 0.00 | 0.00 | 0.00 | 63 | 1005.6 |
| 20260906182506 | 85 | 117 | 9.0 | 21.0 | 0.00 | 0.00 | 0.00 | 63 | 1005.6 |
| 20260906182027 | 85 | 126 | 6.0 | 19.0 | 0.00 | 0.00 | 0.00 | 65 | 1005.6 |
| 20260906181505 | 84 | 127 | 7.0 | 19.0 | 0.00 | 0.00 | 0.00 | 67 | 1005.6 |
| 20260906180506 | 83 | 116 | 5.0 | 26.0 | 0.00 | 0.00 | 0.00 | 67 | 1005.6 |
| 20260906180005 | 83 | 121 | 8.0 | 19.0 | 0.00 | 0.00 | 0.00 | 66 | 1005.6 |
| 20260906175506 | 83 | 108 | 9.0 | 20.0 | 0.00 | 0.00 | 0.00 | 65 | 1005.6 |
| 20260906175006 | 83 | 122 | 9.0 | 22.0 | 0.00 | 0.00 | 0.00 | 68 | 1005.6 |
| 20260906174506 | 82 | 122 | 7.0 | 22.0 | 0.00 | 0.00 | 0.00 | 66 | 1005.6 |
| 20260906174006 | 82 | 113 | 9.0 | 20.0 | 0.00 | 0.00 | 0.00 | 66 | 1005.6 |
| 20260906173526 | 81 | 126 | 6.0 | 20.0 | 0.00 | 0.00 | 0.00 | 68 | 1005.6 |
| 20260906173006 | 81 | 125 | 6.0 | 14.0 | 0.00 | 0.00 | 0.00 | 70 | 1005.6 |
| 20260906172505 | 80 | 115 | 5.0 | 22.0 | 0.00 | 0.00 | 0.00 | 72 | 1005.6 |
| 20260906172006 | 80 | 109 | 6.0 | 22.0 | 0.00 | 0.00 | 0.00 | 72 | 1005.6 |
| 20260906171505 | 80 | 119 | 7.0 | 17.0 | 0.00 | 0.00 | 0.00 | 71 | 1005.6 |
| 20260906171006 | 80 | 124 | 4.0 | 13.0 | 0.00 | 0.00 | 0.00 | 72 | 1005.6 |
| 20260906170505 | 81 | 107 | 5.0 | 13.0 | 0.00 | 0.00 | 0.00 | 71 | 1005.6 |
| 20260906170006 | 80 | 137 | 5.0 | 11.0 | 0.00 | 0.00 | 0.00 | 73 | 1005.6 |
| 20260906165505 | 79 | 112 | 6.0 | 11.0 | 0.00 | 0.00 | 0.00 | 74 | 1005.6 |
| 20260906165006 | 78 | 103 | 4.0 | 9.0 | 0.00 | 0.00 | 0.00 | 74 | 1005.6 |
| 20260906164527 | 78 | 108 | 3.0 | 9.0 | 0.00 | 0.00 | 0.00 | 75 | 1005.6 |
| 20260906164006 | 78 | 112 | 3.0 | 13.0 | 0.00 | 0.00 | 0.00 | 75 | 1005.6 |
| 20260906163506 | 78 | 140 | 4.0 | 13.0 | 0.00 | 0.00 | 0.00 | 74 | 1005.6 |
| 20260906163006 | 78 | 110 | 6.0 | 13.0 | 0.00 | 0.00 | 0.00 | 73 | 1005.6 |
| 20260906162506 | 79 | 154 | 4.0 | 18.0 | 0.00 | 0.00 | 0.00 | 72 | 1005.6 |
| 20260906162006 | 79 | 125 | 6.0 | 21.0 | 0.00 | 0.00 | 0.00 | 70 | 1005.6 |
| 20260906161506 | 80 | 127 | 8.0 | 21.0 | 0.00 | 0.00 | 0.00 | 69 | 1005.6 |
| 20260906161006 | 80 | 126 | 6.0 | 16.0 | 0.00 | 0.00 | 0.00 | 69 | 1005.6 |
| 20260906160506 | 80 | 124 | 6.0 | 19.0 | 0.00 | 0.00 | 0.00 | 71 | 1005.6 |
| 20260906160006 | 79 | 127 | 9.0 | 19.0 | 0.00 | 0.00 | 0.00 | 72 | 1005.6 |
| 20260906155527 | 78 | 112 | 3.0 | 12.0 | 0.00 | 0.00 | 0.00 | 76 | 1005.6 |
| 20260906155006 | 78 | 161 | 4.0 | 15.0 | 0.00 | 0.00 | 0.00 | 75 | 1005.6 |
| 20260906154506 | 78 | 170 | 4.0 | 16.0 | 0.00 | 0.00 | 0.00 | 75 | 1005.6 |
| 20260906154006 | 78 | 143 | 6.0 | 17.0 | 0.00 | 0.00 | 0.00 | 75 | 1005.6 |
| 20260906153005 | 77 | 104 | 5.0 | 16.0 | 0.00 | 0.00 | 0.00 | 77 | 1005.6 |
| 20260906152506 | 76 | 129 | 5.0 | 13.0 | 0.00 | 0.00 | 0.00 | 80 | 1005.6 |
| 20260906152027 | 75 | 133 | 6.0 | 12.0 | 0.00 | 0.00 | 0.00 | 81 | 1005.6 |
| 20260906151506 | 74 | 159 | 3.0 | 10.0 | 0.00 | 0.00 | 0.00 | 81 | 1005.6 |
| 20260906151006 | 74 | 151 | 4.0 | 10.0 | 0.00 | 0.00 | 0.00 | 82 | 1005.6 |
| 20260906150526 | 74 | 122 | 4.0 | 14.0 | 0.00 | 0.00 | 0.00 | 82 | 1005.6 |
| 20260906145527 | 74 | 112 | 6.0 | 13.0 | 0.00 | 0.00 | 0.00 | 82 | 1005.6 |
| 20260906145027 | 73 | 64 | 5.0 | 10.0 | 0.00 | 0.00 | 0.00 | 82 | 1005.6 |
| 20260906144506 | 73 | 103 | 4.0 | 10.0 | 0.00 | 0.00 | 0.00 | 82 | 1005.6 |
| 20260906144006 | 73 | 92 | 4.0 | 13.0 | 0.00 | 0.00 | 0.00 | 82 | 1005.6 |
| 20260906143506 | 72 | 121 | 5.0 | 13.0 | 0.00 | 0.00 | 0.00 | 82 | 1005.6 |
| 20260906143006 | 72 | 107 | 4.0 | 12.0 | 0.00 | 0.00 | 0.00 | 82 | 1005.6 |
| 20260906142506 | 72 | 104 | 5.0 | 11.0 | 0.00 | 0.00 | 0.00 | 83 | 1005.6 |
| 20260906142006 | 73 | 96 | 3.0 | 10.0 | 0.00 | 0.00 | 0.00 | 82 | 1005.6 |
| 20260906141505 | 73 | 101 | 4.0 | 14.0 | 0.00 | 0.00 | 0.00 | 81 | 1005.6 |
| 20260906140505 | 73 | 105 | 3.0 | 8.0 | 0.00 | 0.00 | 0.00 | 82 | 1005.6 |
| 20260906140006 | 73 | 158 | 3.0 | 8.0 | 0.00 | 0.00 | 0.00 | 81 | 1005.6 |
| 20260906135505 | 73 | 55 | 3.0 | 8.0 | 0.00 | 0.00 | 0.00 | 82 | 1005.6 |
| 20260906135006 | 73 | 61 | 3.0 | 8.0 | 0.00 | 0.00 | 0.00 | 82 | 1005.6 |
| 20260906134505 | 73 | 86 | 2.0 | 9.0 | 0.00 | 0.00 | 0.00 | 82 | 1005.6 |
| 20260906134006 | 73 | 85 | 4.0 | 9.0 | 0.00 | 0.00 | 0.00 | 82 | 1005.6 |
| 20260906133505 | 73 | 76 | 4.0 | 9.0 | 0.00 | 0.00 | 0.00 | 81 | 1005.6 |
| 20260906133006 | 73 | 77 | 3.0 | 10.0 | 0.00 | 0.00 | 0.00 | 81 | 1005.6 |
| 20260906132506 | 73 | 39 | 3.0 | 14.0 | 0.00 | 0.00 | 0.00 | 81 | 1005.6 |
| 20260906132027 | 73 | 57 | 7.0 | 14.0 | 0.00 | 0.00 | 0.00 | 80 | 1005.6 |
| 20260906131506 | 74 | 58 | 5.0 | 11.0 | 0.00 | 0.00 | 0.00 | 79 | 1005.6 |
| 20260906131006 | 74 | 54 | 5.0 | 11.0 | 0.00 | 0.00 | 0.00 | 78 | 1005.6 |
| 20260906130506 | 74 | 60 | 5.0 | 9.0 | 0.00 | 0.00 | 0.00 | 77 | 1005.6 |
| 20260906130006 | 74 | 76 | 4.0 | 9.0 | 0.00 | 0.00 | 0.00 | 77 | 1005.6 |
| 20260906125506 | 74 | 50 | 4.0 | 9.0 | 0.00 | 0.00 | 0.00 | 78 | 1005.6 |
| 20260906125006 | 74 | 42 | 5.0 | 9.0 | 0.00 | 0.00 | 0.00 | 78 | 1005.6 |
| 20260906124506 | 73 | 53 | 5.0 | 10.0 | 0.00 | 0.00 | 0.00 | 79 | 1005.6 |
| 20260906124006 | 73 | 60 | 4.0 | 11.0 | 0.00 | 0.00 | 0.00 | 80 | 1005.6 |
| 20260906123527 | 73 | 52 | 6.0 | 11.0 | 0.00 | 0.00 | 0.00 | 81 | 1005.6 |
| 20260906123005 | 73 | 46 | 7.0 | 11.0 | 0.00 | 0.00 | 0.00 | 81 | 1005.6 |
| 20260906122506 | 73 | 39 | 6.0 | 10.0 | 0.00 | 0.00 | 0.00 | 81 | 1005.6 |
| 20260906122005 | 73 | 27 | 5.0 | 8.0 | 0.00 | 0.00 | 0.00 | 81 | 1005.6 |
| 20260906121506 | 73 | 340 | 2.0 | 5.0 | 0.00 | 0.00 | 0.00 | 81 | 1005.6 |
| 20260906121005 | 74 | 359 | 1.0 | 4.0 | 0.00 | 0.00 | 0.00 | 81 | 1005.6 |
| 20260906120506 | 74 | 31 | 2.0 | 3.0 | 0.00 | 0.00 | 0.00 | 80 | 1005.6 |
| 20260906120026 | 74 | 32 | 1.0 | 2.0 | 0.00 | 0.00 | 0.00 | 79 | 1005.6 |
| 20260906115506 | 74 | 32 | 0.0 | 2.0 | 0.00 | 0.00 | 0.00 | 79 | 1005.6 |
| 20260906115005 | 74 | 98 | 0.0 | 2.0 | 0.00 | 0.00 | 0.00 | 77 | 1005.6 |
| 20260906114506 | 74 | 56 | 1.0 | 4.0 | 0.00 | 0.00 | 0.00 | 77 | 1005.6 |
| 20260906114006 | 75 | 69 | 1.0 | 5.0 | 0.00 | 0.00 | 0.00 | 76 | 1005.6 |
| 20260906113506 | 75 | 89 | 2.0 | 5.0 | 0.00 | 0.00 | 0.00 | 75 | 1005.6 |
| 20260906113006 | 75 | 89 | 2.0 | 5.0 | 0.00 | 0.00 | 0.00 | 75 | 1005.6 |
| 20260906112506 | 75 | 257 | 0.0 | 1.0 | 0.00 | 0.00 | 0.00 | 75 | 1005.6 |
| 20260906112006 | 75 | 256 | 0.0 | 1.0 | 0.00 | 0.00 | 0.00 | 75 | 1005.6 |
| 20260906111527 | 75 | 257 | 0.0 | 4.0 | 0.00 | 0.00 | 0.00 | 75 | 1005.6 |
| 20260906111006 | 75 | 256 | 0.0 | 4.0 | 0.00 | 0.00 | 0.00 | 74 | 1005.6 |
| 20260906110505 | 75 | 216 | 2.0 | 3.0 | 0.00 | 0.00 | 0.00 | 73 | 1005.6 |
| 20260906110006 | 75 | 208 | 0.0 | 2.0 | 0.00 | 0.00 | 0.00 | 72 | 1005.6 |
| 20260906105505 | 76 | 208 | 0.0 | 4.0 | 0.00 | 0.00 | 0.00 | 72 | 1005.6 |
| 20260906105006 | 76 | 208 | 1.0 | 4.0 | 0.00 | 0.00 | 0.00 | 71 | 1005.6 |
| 20260906104506 | 76 | 218 | 1.0 | 3.0 | 0.00 | 0.00 | 0.00 | 71 | 1005.6 |
| 20260906104005 | 76 | 218 | 1.0 | 5.0 | 0.00 | 0.00 | 0.00 | 71 | 1005.6 |
| 20260906103506 | 75 | 209 | 1.0 | 5.0 | 0.00 | 0.00 | 0.00 | 71 | 1005.6 |
| 20260906103005 | 75 | 208 | 2.0 | 4.0 | 0.00 | 0.00 | 0.00 | 72 | 1005.6 |
| 20260906102506 | 75 | 208 | 0.0 | 5.0 | 0.00 | 0.00 | 0.00 | 73 | 1005.6 |
| 20260906102006 | 75 | 208 | 1.0 | 5.0 | 0.00 | 0.00 | 0.00 | 73 | 1005.6 |
| 20260906101506 | 76 | 231 | 1.0 | 4.0 | 0.00 | 0.00 | 0.00 | 72 | 1005.6 |
| 20260906101027 | 76 | 207 | 1.0 | 5.0 | 0.00 | 0.00 | 0.00 | 72 | 1005.6 |
| 20260906100505 | 76 | 170 | 0.0 | 5.0 | 0.00 | 0.00 | 0.00 | 72 | 1005.6 |
| 20260906100006 | 76 | 228 | 1.0 | 4.0 | 0.00 | 0.00 | 0.00 | 71 | 1005.6 |
| 20260906095506 | 76 | 190 | 1.0 | 4.0 | 0.00 | 0.00 | 0.00 | 71 | 1005.6 |
| 20260906095006 | 76 | 211 | 1.0 | 4.0 | 0.00 | 0.00 | 0.00 | 72 | 1005.6 |
| 20260906094506 | 76 | 176 | 1.0 | 3.0 | 0.00 | 0.00 | 0.00 | 72 | 1005.6 |
| 20260906094006 | 76 | 170 | 0.0 | 3.0 | 0.00 | 0.00 | 0.00 | 72 | 1005.6 |
| 20260906093506 | 76 | 228 | 0.0 | 4.0 | 0.00 | 0.00 | 0.00 | 73 | 1005.6 |
| 20260906093006 | 76 | 168 | 1.0 | 4.0 | 0.00 | 0.00 | 0.00 | 73 | 1005.6 |
| 20260906092506 | 76 | 169 | 1.0 | 3.0 | 0.00 | 0.00 | 0.00 | 73 | 1005.6 |
| 20260906092005 | 76 | 165 | 0.0 | 3.0 | 0.00 | 0.00 | 0.00 | 73 | 1005.6 |
| 20260906091506 | 76 | 207 | 1.0 | 4.0 | 0.00 | 0.00 | 0.00 | 74 | 1005.6 |
| 20260906091005 | 75 | 218 | 1.0 | 4.0 | 0.00 | 0.00 | 0.00 | 74 | 1005.6 |
| 20260906090527 | 75 | 218 | 1.0 | 3.0 | 0.00 | 0.00 | 0.00 | 75 | 1005.6 |
| 20260906090027 | 75 | 226 | 0.0 | 2.0 | 0.00 | 0.00 | 0.00 | 74 | 1005.6 |
| 20260906085505 | 75 | 226 | 0.0 | 1.0 | 0.00 | 0.00 | 0.00 | 74 | 1005.6 |
| 20260906085048 | 75 | 226 | 0.0 | 1.0 | 0.00 | 0.00 | 0.00 | 74 | 1005.6 |
| 20260906084506 | 75 | 227 | 0.0 | 2.0 | 0.00 | 0.00 | 0.00 | 74 | 1005.6 |
| 20260906084005 | 75 | 226 | 0.0 | 2.0 | 0.00 | 0.00 | 0.00 | 73 | 1005.6 |
| 20260906083506 | 76 | 146 | 0.0 | 3.0 | 0.00 | 0.00 | 0.00 | 73 | 1005.6 |
| 20260906083006 | 76 | 144 | 1.0 | 3.0 | 0.00 | 0.00 | 0.00 | 72 | 1005.6 |
| 20260906082506 | 76 | 210 | 0.0 | 2.0 | 0.00 | 0.00 | 0.00 | 71 | 1005.6 |
| 20260906082006 | 76 | 176 | 0.0 | 2.0 | 0.00 | 0.00 | 0.00 | 71 | 1005.6 |
| 20260906081506 | 76 | 156 | 0.0 | 1.0 | 0.00 | 0.00 | 0.00 | 70 | 1005.6 |
| 20260906081006 | 76 | 156 | 0.0 | 1.0 | 0.00 | 0.00 | 0.00 | 70 | 1005.6 |
| 20260906080505 | 76 | 156 | 0.0 | 0.0 | 0.00 | 0.00 | 0.00 | 70 | 1005.6 |
| 20260906080006 | 76 | 156 | 0.0 | 1.0 | 0.00 | 0.00 | 0.00 | 70 | 1005.6 |
| 20260906075505 | 76 | 156 | 0.0 | 3.0 | 0.00 | 0.00 | 0.00 | 70 | 1005.6 |
| 20260906075006 | 76 | 156 | 0.0 | 3.0 | 0.00 | 0.00 | 0.00 | 70 | 1005.6 |
| 20260906074505 | 76 | 156 | 1.0 | 3.0 | 0.00 | 0.00 | 0.00 | 70 | 1005.6 |
| 20260906074006 | 76 | 156 | 0.0 | 2.0 | 0.00 | 0.00 | 0.00 | 70 | 1005.6 |
| 20260906073527 | 77 | 156 | 0.0 | 2.0 | 0.00 | 0.00 | 0.00 | 69 | 1005.6 |
| 20260906073027 | 77 | 156 | 0.0 | 3.0 | 0.00 | 0.00 | 0.00 | 69 | 1005.6 |
| 20260906072505 | 77 | 156 | 0.0 | 6.0 | 0.00 | 0.00 | 0.00 | 69 | 1005.6 |
| 20260906072006 | 77 | 153 | 3.0 | 6.0 | 0.00 | 0.00 | 0.00 | 69 | 1005.6 |
| 20260906071505 | 77 | 163 | 1.0 | 5.0 | 0.00 | 0.00 | 0.00 | 68 | 1005.6 |
| 20260906071006 | 77 | 136 | 2.0 | 5.0 | 0.00 | 0.00 | 0.00 | 68 | 1005.6 |
| 20260906070505 | 77 | 145 | 1.0 | 5.0 | 0.00 | 0.00 | 0.00 | 68 | 1005.6 |
| 20260906070027 | 77 | 155 | 1.0 | 6.0 | 0.00 | 0.00 | 0.00 | 68 | 1005.6 |
| 20260906065505 | 77 | 151 | 1.0 | 6.0 | 0.00 | 0.00 | 0.00 | 68 | 1005.6 |
| 20260906064506 | 77 | 169 | 2.0 | 5.0 | 0.00 | 0.00 | 0.00 | 68 | 1005.6 |
| 20260906064005 | 76 | 192 | 2.0 | 5.0 | 0.00 | 0.00 | 0.00 | 69 | 1005.6 |
| 20260906063506 | 76 | 156 | 2.0 | 4.0 | 0.00 | 0.00 | 0.00 | 69 | 1005.6 |
| 20260906063006 | 76 | 185 | 2.0 | 4.0 | 0.00 | 0.00 | 0.00 | 69 | 1005.6 |
| 20260906062505 | 76 | 157 | 1.0 | 3.0 | 0.00 | 0.00 | 0.00 | 69 | 1005.6 |
| 20260906062006 | 76 | 170 | 1.0 | 7.0 | 0.00 | 0.00 | 0.00 | 69 | 1005.6 |
| 20260906061505 | 76 | 170 | 1.0 | 7.0 | 0.00 | 0.00 | 0.00 | 69 | 1005.6 |
| 20260906061006 | 76 | 149 | 3.0 | 8.0 | 0.00 | 0.00 | 0.00 | 69 | 1005.6 |
| 20260906060505 | 76 | 136 | 4.0 | 8.0 | 0.00 | 0.00 | 0.00 | 69 | 1005.6 |
| 20260906060006 | 76 | 138 | 4.0 | 7.0 | 0.00 | 0.00 | 0.00 | 70 | 1005.6 |
| 20260906055505 | 76 | 143 | 4.0 | 7.0 | 0.00 | 0.00 | 0.00 | 70 | 1005.6 |
| 20260906055006 | 75 | 138 | 5.0 | 8.0 | 0.00 | 0.00 | 0.00 | 70 | 1005.6 |
| 20260906054505 | 75 | 140 | 3.0 | 8.0 | 0.00 | 0.00 | 0.00 | 70 | 1005.6 |
| 20260906054006 | 76 | 166 | 1.0 | 6.0 | 0.00 | 0.00 | 0.00 | 70 | 1005.6 |
| 20260906053505 | 76 | 137 | 1.0 | 6.0 | 0.00 | 0.00 | 0.00 | 70 | 1005.6 |
| 20260906053006 | 76 | 138 | 3.0 | 5.0 | 0.00 | 0.00 | 0.00 | 69 | 1005.6 |
| 20260906052526 | 76 | 130 | 2.0 | 4.0 | 0.00 | 0.00 | 0.00 | 69 | 1005.6 |
| 20260906052006 | 76 | 150 | 1.0 | 6.0 | 0.00 | 0.00 | 0.00 | 69 | 1005.6 |
| 20260906051505 | 76 | 141 | 2.0 | 6.0 | 0.00 | 0.00 | 0.00 | 69 | 1005.6 |
| 20260906051006 | 76 | 184 | 1.0 | 4.0 | 0.00 | 0.00 | 0.00 | 69 | 1005.6 |
| 20260906050527 | 77 | 184 | 0.0 | 4.0 | 0.00 | 0.00 | 0.00 | 68 | 1005.6 |
| 20260906050005 | 77 | 184 | 0.0 | 4.0 | 0.00 | 0.00 | 0.00 | 67 | 1005.6 |
| 20260906045506 | 77 | 184 | 0.0 | 3.0 | 0.00 | 0.00 | 0.00 | 67 | 1005.6 |
| 20260906045005 | 77 | 184 | 0.0 | 5.0 | 0.00 | 0.00 | 0.00 | 66 | 1005.6 |
| 20260906044506 | 78 | 207 | 2.0 | 5.0 | 0.00 | 0.00 | 0.00 | 65 | 1005.6 |
| 20260906044026 | 78 | 142 | 0.0 | 7.0 | 0.00 | 0.00 | 0.00 | 65 | 1005.6 |
| 20260906043505 | 79 | 137 | 4.0 | 7.0 | 0.00 | 0.00 | 0.00 | 64 | 1005.6 |
| 20260906043006 | 79 | 144 | 4.0 | 7.0 | 0.00 | 0.00 | 0.00 | 64 | 1005.6 |
| 20260906042526 | 79 | 137 | 3.0 | 7.0 | 0.00 | 0.00 | 0.00 | 63 | 1005.6 |
| 20260906042006 | 79 | 129 | 3.0 | 7.0 | 0.00 | 0.00 | 0.00 | 63 | 1005.6 |
| 20260906041505 | 80 | 147 | 3.0 | 7.0 | 0.00 | 0.00 | 0.00 | 62 | 1005.6 |
| 20260906041006 | 80 | 130 | 2.0 | 8.0 | 0.00 | 0.00 | 0.00 | 62 | 1005.6 |
| 20260906040505 | 80 | 134 | 3.0 | 8.0 | 0.00 | 0.00 | 0.00 | 61 | 1005.6 |
| 20260906040027 | 80 | 154 | 2.0 | 9.0 | 0.00 | 0.00 | 0.00 | 61 | 1005.6 |
| 20260906035505 | 80 | 134 | 4.0 | 9.0 | 0.00 | 0.00 | 0.00 | 62 | 1005.6 |
| 20260906035005 | 80 | 130 | 3.0 | 8.0 | 0.00 | 0.00 | 0.00 | 61 | 1005.6 |
| 20260906034505 | 81 | 147 | 2.0 | 8.0 | 0.00 | 0.00 | 0.00 | 61 | 1005.6 |
| 20260906034005 | 81 | 151 | 2.0 | 7.0 | 0.00 | 0.00 | 0.00 | 61 | 1005.6 |
| 20260906033505 | 81 | 140 | 2.0 | 9.0 | 0.00 | 0.00 | 0.00 | 61 | 1005.6 |
| 20260906033026 | 81 | 157 | 3.0 | 9.0 | 0.00 | 0.00 | 0.00 | 61 | 1005.6 |
| 20260906032506 | 81 | 143 | 2.0 | 9.0 | 0.00 | 0.00 | 0.00 | 62 | 1005.6 |
| 20260906032005 | 81 | 142 | 4.0 | 9.0 | 0.00 | 0.00 | 0.00 | 62 | 1005.6 |
| 20260906031506 | 81 | 156 | 2.0 | 7.0 | 0.00 | 0.00 | 0.00 | 62 | 1005.6 |
| 20260906031005 | 81 | 146 | 3.0 | 8.0 | 0.00 | 0.00 | 0.00 | 62 | 1005.6 |
| 20260906030506 | 81 | 148 | 2.0 | 8.0 | 0.00 | 0.00 | 0.00 | 62 | 1005.6 |
| 20260906030006 | 81 | 149 | 3.0 | 8.0 | 0.00 | 0.00 | 0.00 | 62 | 1005.6 |
| 20260906025505 | 81 | 136 | 3.0 | 8.0 | 0.00 | 0.00 | 0.00 | 63 | 1005.6 |
| 20260906025006 | 81 | 136 | 4.0 | 10.0 | 0.00 | 0.00 | 0.00 | 63 | 1005.6 |
| 20260906024505 | 81 | 136 | 4.0 | 10.0 | 0.00 | 0.00 | 0.00 | 62 | 1005.6 |
| 20260906024006 | 81 | 132 | 5.0 | 10.0 | 0.00 | 0.00 | 0.00 | 62 | 1005.6 |
| 20260906023527 | 81 | 142 | 4.0 | 11.0 | 0.00 | 0.00 | 0.00 | 62 | 1005.6 |
| 20260906023005 | 81 | 131 | 6.0 | 11.0 | 0.00 | 0.00 | 0.00 | 62 | 1005.6 |
| 20260906022527 | 82 | 123 | 4.0 | 11.0 | 0.00 | 0.00 | 0.00 | 61 | 1005.6 |
| 20260906022005 | 82 | 127 | 5.0 | 12.0 | 0.00 | 0.00 | 0.00 | 61 | 1005.6 |
| 20260906021505 | 82 | 129 | 6.0 | 12.0 | 0.00 | 0.00 | 0.00 | 61 | 1005.6 |
| 20260906021027 | 82 | 130 | 6.0 | 11.0 | 0.00 | 0.00 | 0.00 | 60 | 1005.6 |
| 20260906020505 | 82 | 154 | 5.0 | 11.0 | 0.00 | 0.00 | 0.00 | 60 | 1005.6 |
| 20260906020006 | 82 | 130 | 6.0 | 11.0 | 0.00 | 0.00 | 0.00 | 60 | 1005.6 |
| 20260906015505 | 82 | 128 | 5.0 | 11.0 | 0.00 | 0.00 | 0.00 | 59 | 1005.6 |
| 20260906015006 | 83 | 129 | 6.0 | 13.0 | 0.00 | 0.00 | 0.00 | 59 | 1005.6 |
| 20260906014505 | 83 | 128 | 7.0 | 13.0 | 0.00 | 0.00 | 0.00 | 58 | 1005.6 |
| 20260906014006 | 83 | 132 | 6.0 | 12.0 | 0.00 | 0.00 | 0.00 | 58 | 1005.6 |
| 20260906013505 | 83 | 141 | 4.0 | 15.0 | 0.00 | 0.00 | 0.00 | 57 | 1005.6 |
| 20260906013006 | 83 | 128 | 4.0 | 15.0 | 0.00 | 0.00 | 0.00 | 57 | 1005.6 |
| 20260906012505 | 84 | 126 | 5.0 | 14.0 | 0.00 | 0.00 | 0.00 | 57 | 1005.6 |
| 20260906012005 | 84 | 135 | 5.0 | 15.0 | 0.00 | 0.00 | 0.00 | 57 | 1005.6 |
| 20260906011505 | 84 | 123 | 5.0 | 15.0 | 0.00 | 0.00 | 0.00 | 57 | 1005.6 |
| 20260906011006 | 84 | 129 | 5.0 | 15.0 | 0.00 | 0.00 | 0.00 | 56 | 1005.6 |
| 20260906010527 | 84 | 132 | 6.0 | 18.0 | 0.00 | 0.00 | 0.00 | 56 | 1005.6 |
| 20260906010005 | 85 | 125 | 6.0 | 18.0 | 0.00 | 0.00 | 0.00 | 55 | 1005.6 |
| 20260906005505 | 85 | 127 | 7.0 | 20.0 | 0.00 | 0.00 | 0.00 | 54 | 1005.6 |
| 20260906005005 | 85 | 132 | 8.0 | 22.0 | 0.00 | 0.00 | 0.00 | 54 | 1005.6 |
| 20260906004505 | 86 | 136 | 6.0 | 22.0 | 0.00 | 0.00 | 0.00 | 53 | 1005.6 |
| 20260906003506 | 86 | 131 | 8.0 | 15.0 | 0.00 | 0.00 | 0.00 | 54 | 1005.6 |
| 20260906003047 | 87 | 117 | 6.0 | 17.0 | 0.00 | 0.00 | 0.00 | 52 | 1005.6 |
| 20260906002505 | 87 | 122 | 9.0 | 22.0 | 0.00 | 0.00 | 0.00 | 51 | 1005.6 |
| 20260906002005 | 89 | 127 | 9.0 | 22.0 | 0.00 | 0.00 | 0.00 | 50 | 1005.6 |
| 20260906001526 | 90 | 99 | 8.0 | 18.0 | 0.00 | 0.00 | 0.00 | 49 | 1005.6 |
| 20260906001006 | 91 | 112 | 7.0 | 14.0 | 0.00 | 0.00 | 0.00 | 49 | 1005.6 |
| 20260906000505 | 92 | 125 | 7.0 | 14.0 | 0.00 | 0.00 | 0.00 | 47 | 1005.6 |
| 20260906000006 | 92 | 117 | 4.0 | 15.0 | 0.00 | 0.00 | 0.00 | 47 | 1005.6 |
| 20260905235505 | 92 | 126 | 6.0 | 15.0 | 0.00 | 0.00 | 0.00 | 46 | 1005.6 |
| 20260905235006 | 93 | 93 | 5.0 | 13.0 | 0.00 | 0.00 | 0.00 | 44 | 1005.6 |
| 20260905234505 | 94 | 100 | 5.0 | 14.0 | 0.00 | 0.00 | 0.00 | 44 | 1005.6 |
| 20260905234027 | 95 | 121 | 7.0 | 14.0 | 0.00 | 0.00 | 0.00 | 42 | 1005.6 |
| 20260905233526 | 96 | 132 | 7.0 | 14.0 | 0.00 | 0.00 | 0.00 | 40 | 1005.6 |
| 20260905233005 | 96 | 166 | 2.0 | 7.0 | 0.00 | 0.00 | 0.00 | 38 | 1005.6 |
| 20260905232506 | 96 | 196 | 2.0 | 5.0 | 0.00 | 0.00 | 0.00 | 38 | 1005.6 |
| 20260905232005 | 96 | 189 | 1.0 | 9.0 | 0.00 | 0.00 | 0.00 | 38 | 1005.6 |
| 20260905231506 | 96 | 191 | 2.0 | 9.0 | 0.00 | 0.00 | 0.00 | 39 | 1005.6 |
| 20260905231005 | 96 | 218 | 2.0 | 8.0 | 0.00 | 0.00 | 0.00 | 38 | 1005.6 |
| 20260905230505 | 97 | 194 | 2.0 | 9.0 | 0.00 | 0.00 | 0.00 | 38 | 1005.6 |
| 20260905230005 | 97 | 178 | 3.0 | 12.0 | 0.00 | 0.00 | 0.00 | 38 | 1005.6 |
| 20260905225505 | 97 | 141 | 5.0 | 12.0 | 0.00 | 0.00 | 0.00 | 39 | 1005.6 |
| 20260905225005 | 96 | 207 | 1.0 | 7.0 | 0.00 | 0.00 | 0.00 | 39 | 1005.6 |
| 20260905224505 | 96 | 177 | 2.0 | 7.0 | 0.00 | 0.00 | 0.00 | 39 | 1005.6 |
| 20260905224005 | 97 | 186 | 2.0 | 7.0 | 0.00 | 0.00 | 0.00 | 40 | 1005.6 |
| 20260905223526 | 97 | 164 | 1.0 | 10.0 | 0.00 | 0.00 | 0.00 | 41 | 1005.6 |
| 20260905223027 | 97 | 154 | 5.0 | 10.0 | 0.00 | 0.00 | 0.00 | 40 | 1005.6 |
| 20260905222506 | 96 | 191 | 2.0 | 6.0 | 0.00 | 0.00 | 0.00 | 40 | 1005.6 |
| 20260905222005 | 97 | 181 | 2.0 | 8.0 | 0.00 | 0.00 | 0.00 | 39 | 1005.6 |
| 20260905221527 | 97 | 159 | 3.0 | 9.0 | 0.00 | 0.00 | 0.00 | 40 | 1005.6 |
| 20260905221005 | 97 | 169 | 3.0 | 9.0 | 0.00 | 0.00 | 0.00 | 40 | 1005.6 |
| 20260905220506 | 97 | 152 | 1.0 | 7.0 | 0.00 | 0.00 | 0.00 | 42 | 1005.6 |
| 20260905220005 | 97 | 172 | 2.0 | 9.0 | 0.00 | 0.00 | 0.00 | 40 | 1005.6 |
| 20260905215527 | 97 | 166 | 3.0 | 9.0 | 0.00 | 0.00 | 0.00 | 40 | 1005.6 |
| 20260905215005 | 97 | 193 | 2.0 | 6.0 | 0.00 | 0.00 | 0.00 | 41 | 1005.6 |
| 20260905214505 | 96 | 194 | 2.0 | 6.0 | 0.00 | 0.00 | 0.00 | 41 | 1005.6 |
| 20260905214005 | 96 | 174 | 2.0 | 10.0 | 0.00 | 0.00 | 0.00 | 42 | 1005.6 |
| 20260905213505 | 96 | 174 | 2.0 | 10.0 | 0.00 | 0.00 | 0.00 | 43 | 1005.6 |
| 20260905213005 | 96 | 184 | 2.0 | 5.0 | 0.00 | 0.00 | 0.00 | 40 | 1005.6 |
| 20260905212526 | 96 | 176 | 2.0 | 7.0 | 0.00 | 0.00 | 0.00 | 42 | 1005.6 |
| 20260905212006 | 96 | 191 | 3.0 | 7.0 | 0.00 | 0.00 | 0.00 | 42 | 1005.6 |
| 20260905211505 | 96 | 162 | 3.0 | 7.0 | 0.00 | 0.00 | 0.00 | 41 | 1005.6 |
| 20260905211005 | 96 | 197 | 1.0 | 12.0 | 0.00 | 0.00 | 0.00 | 44 | 1005.6 |
| 20260905210526 | 96 | 166 | 3.0 | 12.0 | 0.00 | 0.00 | 0.00 | 43 | 1005.6 |
| 20260905210026 | 96 | 143 | 2.0 | 9.0 | 0.00 | 0.00 | 0.00 | 44 | 1005.6 |
| 20260905205506 | 96 | 183 | 2.0 | 15.0 | 0.00 | 0.00 | 0.00 | 42 | 1005.6 |
| 20260905205005 | 96 | 149 | 4.0 | 16.0 | 0.00 | 0.00 | 0.00 | 43 | 1005.6 |
| 20260905204506 | 96 | 158 | 5.0 | 16.0 | 0.00 | 0.00 | 0.00 | 43 | 1005.6 |
| 20260905204005 | 95 | 158 | 3.0 | 11.0 | 0.00 | 0.00 | 0.00 | 46 | 1005.6 |
| 20260905203506 | 93 | 174 | 2.0 | 13.0 | 0.00 | 0.00 | 0.00 | 46 | 1005.6 |
| 20260905203005 | 92 | 144 | 6.0 | 13.0 | 0.00 | 0.00 | 0.00 | 47 | 1005.6 |